When you browse on this site, cookies collect data to enhance your experience and personalize the content and advertising you see.
Visit our Privacy Policy to learn more. By continuing to use the site, you agree to this use of cookies and data.
  • en France
  • Liste des pays
  • À 7 jours
  • Température de l'eau
  • Carte météo
  • Widgets météo
  • user-avatar
    Se connecter

    Météo par heure à Lincoln

    Ce jour, 18 Janvier, Samedi

    Heure Température Précipitation Vent Pression Humidité
    00:00 +3°C° 0 mm 4 m/s 757 mmHg 85%
    01:00 +2°C° 0 mm 5 m/s 758 mmHg 83%
    02:00 +1°C° 0 mm 5 m/s 759 mmHg 82%
    03:00 +1°C° 0 mm 5 m/s 759 mmHg 80%
    04:00 +1°C° 0 mm 5 m/s 760 mmHg 81%
    05:00 +1°C° 0 mm 5 m/s 760 mmHg 81%
    06:00 +1°C° 0 mm 5 m/s 761 mmHg 81%
    07:00 +1°C° 0 mm 4 m/s 761 mmHg 81%
    08:00 0°C° 0 mm 4 m/s 762 mmHg 82%
    09:00 0°C° 0 mm 4 m/s 763 mmHg 82%
    10:00 +3°C° 0 mm 4 m/s 763 mmHg 78%
    11:00 +3°C° 0 mm 5 m/s 764 mmHg 74%
    12:00 +5°C° 0 mm 5 m/s 765 mmHg 70%
    13:00 +5°C° 0 mm 4 m/s 765 mmHg 71%
    14:00 +5°C° 0 mm 4 m/s 765 mmHg 72%
    15:00 +5°C° 0 mm 3 m/s 766 mmHg 73%
    16:00 +4°C° 0 mm 4 m/s 767 mmHg 75%
    17:00 +3°C° 0 mm 4 m/s 767 mmHg 78%
    18:00 +1°C° 0 mm 4 m/s 768 mmHg 81%
    19:00 +2°C° 0 mm 3 m/s 769 mmHg 81%
    20:00 +2°C° 0 mm 3 m/s 769 mmHg 81%
    21:00 +1°C° 0 mm 3 m/s 770 mmHg 82%
    22:00 +1°C° 0 mm 3 m/s 771 mmHg 82%
    23:00 +1°C° 0 mm 3 m/s 772 mmHg 83%

    Demain, 19 Janvier, Dimanche

    Heure Température Précipitation Vent Pression Humidité
    00:00 0°C° 0 mm 3 m/s 772 mmHg 83%
    01:00 0°C° 0 mm 3 m/s 773 mmHg 84%
    02:00 0°C° 0 mm 3 m/s 773 mmHg 84%
    03:00 +1°C° 0 mm 2 m/s 773 mmHg 85%
    04:00 +1°C° 0 mm 2 m/s 774 mmHg 84%
    05:00 +1°C° 0 mm 2 m/s 775 mmHg 83%
    06:00 -1°C° 0 mm 2 m/s 775 mmHg 83%
    07:00 +1°C° 0 mm 2 m/s 776 mmHg 81%
    08:00 +1°C° 0 mm 2 m/s 777 mmHg 80%
    09:00 +2°C° 0 mm 1 m/s 777 mmHg 78%
    10:00 +3°C° 0 mm 1 m/s 778 mmHg 73%
    11:00 +5°C° 0 mm 1 m/s 778 mmHg 68%
    12:00 +6°C° 0 mm 1 m/s 779 mmHg 63%
    13:00 +5°C° 0 mm 2 m/s 779 mmHg 65%
    14:00 +5°C° 0 mm 2 m/s 779 mmHg 67%
    15:00 +5°C° 0 mm 2 m/s 779 mmHg 69%
    16:00 +4°C° 0 mm 2 m/s 779 mmHg 72%
    17:00 +3°C° 0 mm 2 m/s 779 mmHg 75%
    18:00 +2°C° 0 mm 2 m/s 779 mmHg 79%
    19:00 +2°C° 0 mm 2 m/s 780 mmHg 81%
    20:00 +1°C° 0 mm 2 m/s 780 mmHg 84%
    21:00 +1°C° 0 mm 2 m/s 780 mmHg 87%
    22:00 +1°C° 0 mm 2 m/s 780 mmHg 87%
    23:00 +1°C° 0 mm 2 m/s 780 mmHg 87%

    Après-demain, 20 Janvier, Lundi

    Heure Température Précipitation Vent Pression Humidité
    00:00 +1°C° 0 mm 2 m/s 781 mmHg 87%
    01:00 +1°C° 0 mm 2 m/s 780 mmHg 86%
    02:00 +1°C° 0 mm 2 m/s 780 mmHg 85%
    03:00 +1°C° 0 mm 2 m/s 780 mmHg 84%
    04:00 +1°C° 0 mm 2 m/s 780 mmHg 83%
    05:00 +1°C° 0 mm 2 m/s 780 mmHg 82%
    06:00 +1°C° 0 mm 2 m/s 780 mmHg 81%
    07:00 +1°C° 0 mm 2 m/s 780 mmHg 82%
    08:00 +1°C° 0 mm 2 m/s 780 mmHg 83%
    09:00 +1°C° 0 mm 2 m/s 780 mmHg 84%
    10:00 +3°C° 0 mm 2 m/s 780 mmHg 80%
    11:00 +4°C° 0 mm 2 m/s 780 mmHg 77%
    12:00 +5°C° 0 mm 2 m/s 780 mmHg 74%
    13:00 +5°C° 0 mm 2 m/s 780 mmHg 76%
    14:00 +5°C° 0 mm 2 m/s 779 mmHg 77%
    15:00 +5°C° 0 mm 2 m/s 779 mmHg 78%
    16:00 +4°C° 0 mm 2 m/s 779 mmHg 80%
    17:00 +3°C° 0 mm 2 m/s 779 mmHg 83%
    18:00 +1°C° 0 mm 3 m/s 779 mmHg 85%
    19:00 +1°C° 0 mm 3 m/s 779 mmHg 84%
    20:00 +1°C° 0 mm 3 m/s 779 mmHg 83%
    21:00 0°C° 0 mm 3 m/s 778 mmHg 83%
    22:00 0°C° 0 mm 3 m/s 778 mmHg 82%
    23:00 0°C° 0 mm 3 m/s 778 mmHg 80%

    21 Janvier, Mardi

    Heure Température Précipitation Vent Pression Humidité
    00:00 0°C° 0 mm 3 m/s 778 mmHg 79%
    01:00 0°C° 0 mm 3 m/s 778 mmHg 79%
    02:00 0°C° 0 mm 3 m/s 777 mmHg 78%
    03:00 0°C° 0 mm 3 m/s 777 mmHg 78%
    04:00 0°C° 0 mm 3 m/s 777 mmHg 80%
    05:00 0°C° 0 mm 3 m/s 777 mmHg 83%
    06:00 0°C° 0 mm 3 m/s 776 mmHg 85%
    07:00 0°C° 0 mm 3 m/s 777 mmHg 87%
    08:00 +1°C° 0 mm 2 m/s 777 mmHg 89%
    09:00 +1°C° 0 mm 2 m/s 777 mmHg 91%
    10:00 +2°C° 0 mm 3 m/s 777 mmHg 88%
    11:00 +3°C° 0 mm 3 m/s 777 mmHg 85%
    12:00 +4°C° 0 mm 3 m/s 776 mmHg 82%
    13:00 +5°C° 0 mm 2 m/s 776 mmHg 83%
    14:00 +5°C° 0 mm 2 m/s 776 mmHg 83%
    15:00 +6°C° 0 mm 1 m/s 776 mmHg 84%
    16:00 +5°C° 0 mm 1 m/s 776 mmHg 86%
    17:00 +4°C° 0 mm 2 m/s 775 mmHg 88%
    18:00 +3°C° 0 mm 2 m/s 775 mmHg 90%
    19:00 +3°C° 0 mm 2 m/s 775 mmHg 90%
    20:00 +3°C° 0 mm 2 m/s 775 mmHg 91%
    21:00 +3°C° 0 mm 2 m/s 775 mmHg 92%
    22:00 +3°C° 0 mm 2 m/s 775 mmHg 93%
    23:00 +4°C° 0 mm 1 m/s 775 mmHg 93%

    22 Janvier, Mercredi

    Heure Température Précipitation Vent Pression Humidité
    00:00 +4°C° 0 mm 1 m/s 775 mmHg 94%
    01:00 +4°C° 0 mm 1 m/s 775 mmHg 94%
    02:00 +4°C° 0 mm 1 m/s 775 mmHg 95%
    03:00 +4°C° 0 mm 1 m/s 775 mmHg 95%
    04:00 +4°C° 0 mm 1 m/s 775 mmHg 95%
    05:00 +4°C° 0 mm 1 m/s 774 mmHg 95%
    06:00 +4°C° 0 mm 1 m/s 774 mmHg 96%
    07:00 +5°C° 0 mm 1 m/s 774 mmHg 96%
    08:00 +5°C° 0 mm 1 m/s 774 mmHg 96%
    09:00 +5°C° 0 mm 1 m/s 774 mmHg 96%
    10:00 +6°C° 0 mm 1 m/s 774 mmHg 94%
    11:00 +7°C° 0 mm 1 m/s 774 mmHg 93%
    12:00 +7°C° 0 mm 1 m/s 774 mmHg 91%
    13:00 +7°C° 0 mm 1 m/s 774 mmHg 91%
    14:00 +8°C° 0 mm 1 m/s 774 mmHg 91%
    15:00 +8°C° 0 mm 1 m/s 773 mmHg 91%
    16:00 +8°C° 0 mm 1 m/s 773 mmHg 93%
    17:00 +7°C° 0 mm 1 m/s 773 mmHg 94%
    18:00 +7°C° 0 mm 1 m/s 773 mmHg 95%
    19:00 +7°C° 0 mm 1 m/s 773 mmHg 95%
    20:00 +6°C° 0 mm 2 m/s 773 mmHg 94%
    21:00 +5°C° 0 mm 2 m/s 773 mmHg 94%
    22:00 +5°C° 0 mm 2 m/s 773 mmHg 94%
    23:00 +4°C° 0 mm 2 m/s 773 mmHg 95%

    23 Janvier, Jeudi

    Heure Température Précipitation Vent Pression Humidité
    00:00 +4°C° 0 mm 2 m/s 773 mmHg 95%
    01:00 +4°C° 0 mm 2 m/s 772 mmHg 95%
    02:00 +3°C° 0 mm 2 m/s 772 mmHg 95%
    03:00 +4°C° 0 mm 1 m/s 772 mmHg 95%
    04:00 +4°C° 0 mm 1 m/s 771 mmHg 95%
    05:00 +4°C° 0 mm 1 m/s 771 mmHg 95%
    06:00 +4°C° 0 mm 1 m/s 771 mmHg 95%
    07:00 +4°C° 0 mm 1 m/s 771 mmHg 95%
    08:00 +4°C° 0 mm 1 m/s 771 mmHg 95%
    09:00 +4°C° 0 mm 1 m/s 771 mmHg 95%
    10:00 +5°C° 0 mm 1 m/s 771 mmHg 90%
    11:00 +6°C° 0 mm 1 m/s 771 mmHg 86%
    12:00 +6°C° 0 mm 2 m/s 771 mmHg 81%
    13:00 +6°C° 0 mm 2 m/s 770 mmHg 81%
    14:00 +6°C° 0 mm 2 m/s 770 mmHg 81%
    15:00 +6°C° 0 mm 2 m/s 769 mmHg 81%
    16:00 +5°C° 0 mm 2 m/s 769 mmHg 85%
    17:00 +4°C° 0 mm 2 m/s 769 mmHg 88%
    18:00 +3°C° 0 mm 2 m/s 768 mmHg 91%
    19:00 +3°C° 0 mm 2 m/s 768 mmHg 91%
    20:00 +2°C° 0 mm 2 m/s 768 mmHg 92%
    21:00 +2°C° 0 mm 2 m/s 768 mmHg 92%
    22:00 +2°C° 0 mm 2 m/s 768 mmHg 93%
    23:00 +3°C° 0 mm 1 m/s 767 mmHg 93%
    Voir plus